User: anonymous   Login
Location: Unspecified
(0.0000°N, 0.0000°E)
Time: 04:50:03
(UTC+00:00)
Language:

ZACube-1 - Orbit

View from above orbital plane
View from above orbital plane
View from above satellite
View from above satellite

Ground track
Ground track

The orbit data is extracted from the following two-line orbital elements,

1 39417U 13066B   18015.88117051  .00000228  00000-0  35432-4 0  9999
2 39417  97.6050  52.5132 0057808 294.5344  64.9850 14.80859974224252
Epoch (UTC): 15 January 2018 21:08:53
Eccentricity: 0.0057808
inclination: 97.6050°
perigee height: 586 km
apogee height: 667 km
right ascension of ascending node: 52.5132°
argument of perigee: 294.5344°
revolutions per day: 14.80859974
mean anomaly at epoch: 64.9850°
orbit number at epoch: 22425

The dashed part of the orbit path shows where the satellite is in the earth's shadow,  

DLR